Time,TemperatureF,DewpointF,PressureIn,WindDirection,WindDirectionDegrees,WindSpeedMPH,WindSpeedGustMPH,Humidity,HourlyPrecipIn,Conditions,Clouds,dailyrainin,SoftwareType,DateUTC
2013-09-08 00:02:00,57.2,56.7,29.86,WSW,244,9.0,10.0,98,0.00,,,0.00,meteohub,2013-09-08 07:02:00,
2013-09-08 00:07:00,57.0,56.5,29.86,SW,236,7.0,10.0,98,0.00,,,0.00,meteohub,2013-09-08 07:07:00,
2013-09-08 00:12:00,57.2,56.7,29.86,WSW,249,4.0,11.0,98,0.00,,,0.00,meteohub,2013-09-08 07:12:00,
2013-09-08 00:17:00,57.4,56.8,29.86,SW,227,3.0,11.0,98,0.00,,,0.00,meteohub,2013-09-08 07:17:00,
2013-09-08 00:22:00,57.4,56.8,29.86,SW,227,3.0,11.0,98,0.00,,,0.00,meteohub,2013-09-08 07:22:00,
2013-09-08 00:27:00,57.4,56.8,29.86,West,280,3.0,9.0,98,0.00,,,0.00,meteohub,2013-09-08 07:27:00,
2013-09-08 00:32:00,57.4,56.8,29.86,SW,232,5.0,10.0,98,0.00,,,0.00,meteohub,2013-09-08 07:32:00,
2013-09-08 00:37:00,57.2,56.7,29.86,West,266,2.0,10.0,98,0.00,,,0.00,meteohub,2013-09-08 07:37:00,
2013-09-08 00:42:00,57.2,56.7,29.86,West,281,3.0,11.0,98,0.00,,,0.00,meteohub,2013-09-08 07:42:00,
2013-09-08 00:47:00,57.2,56.7,29.86,SW,229,7.0,11.0,98,0.00,,,0.00,meteohub,2013-09-08 07:47:00,
2013-09-08 00:52:00,57.2,56.7,29.86,WSW,249,5.0,11.0,98,0.00,,,0.00,meteohub,2013-09-08 07:52:00,
2013-09-08 00:57:00,57.4,56.8,29.86,WSW,258,9.0,11.0,98,0.00,,,0.00,meteohub,2013-09-08 07:57:00,
2013-09-08 01:02:00,57.4,56.8,29.86,West,262,5.0,12.0,98,0.00,,,0.00,meteohub,2013-09-08 08:02:00,
2013-09-08 01:07:00,57.0,56.5,29.86,SW,224,7.0,12.0,98,0.00,,,0.00,meteohub,2013-09-08 08:07:00,
2013-09-08 01:12:00,57.0,56.5,29.86,West,277,7.0,12.0,98,0.00,,,0.00,meteohub,2013-09-08 08:12:00,
2013-09-08 01:17:00,56.8,56.3,29.86,SW,232,7.0,12.0,98,0.00,,,0.00,meteohub,2013-09-08 08:17:00,
2013-09-08 01:22:00,56.7,56.1,29.86,WSW,239,7.0,13.0,98,0.00,,,0.00,meteohub,2013-09-08 08:22:00,
2013-09-08 01:27:00,56.7,56.1,29.86,South,176,2.0,13.0,98,0.00,,,0.00,meteohub,2013-09-08 08:27:00,
2013-09-08 01:32:00,56.5,55.9,29.86,South,176,5.0,13.0,98,0.00,,,0.00,meteohub,2013-09-08 08:32:00,
2013-09-08 01:37:00,56.5,55.9,29.86,South,176,7.0,11.0,98,0.00,,,0.00,meteohub,2013-09-08 08:37:00,
2013-09-08 01:42:00,56.5,55.9,29.86,West,270,6.0,11.0,98,0.00,,,0.00,meteohub,2013-09-08 08:42:00,
2013-09-08 01:47:00,56.5,55.9,29.86,WSW,237,7.0,12.0,98,0.00,,,0.00,meteohub,2013-09-08 08:47:00,
2013-09-08 01:52:00,56.7,56.3,29.86,WNW,295,5.0,12.0,99,0.00,,,0.00,meteohub,2013-09-08 08:52:00,
2013-09-08 01:57:00,56.7,56.3,29.86,SW,222,5.0,13.0,99,0.00,,,0.00,meteohub,2013-09-08 08:57:00,
2013-09-08 02:02:00,56.8,56.5,29.86,SW,234,5.0,13.0,99,0.00,,,0.00,meteohub,2013-09-08 09:02:00,
2013-09-08 02:07:00,56.8,56.5,29.86,West,270,1.0,13.0,99,0.00,,,0.00,meteohub,2013-09-08 09:07:00,
2013-09-08 02:12:00,56.8,56.5,29.86,West,261,3.0,10.0,99,0.00,,,0.00,meteohub,2013-09-08 09:12:00,
2013-09-08 02:17:00,56.8,56.5,29.86,NW,304,1.0,11.0,99,0.00,,,0.00,meteohub,2013-09-08 09:17:00,
2013-09-08 02:22:00,56.8,56.5,29.86,SW,222,7.0,11.0,99,0.00,,,0.00,meteohub,2013-09-08 09:22:00,
2013-09-08 02:27:00,56.8,56.5,29.86,West,260,7.0,11.0,99,0.00,,,0.00,meteohub,2013-09-08 09:27:00,
2013-09-08 02:32:00,56.8,56.5,29.86,SSW,213,3.0,9.0,99,0.00,,,0.00,meteohub,2013-09-08 09:32:00,
2013-09-08 02:37:00,56.8,56.5,29.86,South,176,3.0,9.0,99,0.00,,,0.00,meteohub,2013-09-08 09:37:00,
2013-09-08 02:42:00,56.8,56.5,29.85,WSW,252,2.0,9.0,99,0.00,,,0.00,meteohub,2013-09-08 09:42:00,
2013-09-08 02:47:00,56.8,56.5,29.85,West,262,2.0,11.0,99,0.00,,,0.00,meteohub,2013-09-08 09:47:00,
2013-09-08 02:52:00,57.0,56.7,29.85,SW,222,2.0,11.0,99,0.00,,,0.00,meteohub,2013-09-08 09:52:00,
2013-09-08 02:57:00,57.0,56.7,29.85,WSW,247,4.0,10.0,99,0.00,,,0.00,meteohub,2013-09-08 09:57:00,
2013-09-08 03:02:00,57.0,56.7,29.85,WSW,246,3.0,10.0,99,0.00,,,0.00,meteohub,2013-09-08 10:02:00,
2013-09-08 03:07:00,57.0,56.7,29.85,SSW,210,0.0,10.0,99,0.00,,,0.00,meteohub,2013-09-08 10:07:00,
2013-09-08 03:12:00,57.0,56.7,29.85,WSW,237,5.0,9.0,99,0.00,,,0.00,meteohub,2013-09-08 10:12:00,
2013-09-08 03:17:00,57.0,56.7,29.86,SW,234,5.0,9.0,99,0.00,,,0.00,meteohub,2013-09-08 10:17:00,
2013-09-08 03:22:00,57.0,56.7,29.86,WSW,241,0.0,9.0,99,0.00,,,0.00,meteohub,2013-09-08 10:22:00,
2013-09-08 03:27:00,57.0,56.7,29.85,WSW,240,5.0,9.0,99,0.00,,,0.00,meteohub,2013-09-08 10:27:00,
2013-09-08 03:32:00,56.8,56.5,29.85,South,176,1.0,9.0,99,0.00,,,0.00,meteohub,2013-09-08 10:32:00,
2013-09-08 03:37:00,56.8,56.5,29.85,South,176,7.0,11.0,99,0.00,,,0.00,meteohub,2013-09-08 10:37:00,
2013-09-08 03:42:00,56.8,56.5,29.85,SW,221,4.0,11.0,99,0.00,,,0.00,meteohub,2013-09-08 10:42:00,
2013-09-08 03:47:00,57.0,56.7,29.85,WSW,239,4.0,11.0,99,0.00,,,0.00,meteohub,2013-09-08 10:47:00,
2013-09-08 03:52:00,57.0,56.7,29.86,South,176,0.0,8.0,99,0.00,,,0.00,meteohub,2013-09-08 10:52:00,
2013-09-08 03:57:00,57.2,56.8,29.85,WSW,255,6.0,8.0,99,0.00,,,0.00,meteohub,2013-09-08 10:57:00,
2013-09-08 04:02:00,57.2,56.8,29.85,WSW,255,2.0,8.0,99,0.00,,,0.00,meteohub,2013-09-08 11:02:00,
2013-09-08 04:07:00,57.0,56.7,29.85,SW,236,1.0,9.0,99,0.00,,,0.00,meteohub,2013-09-08 11:07:00,
2013-09-08 04:12:00,57.0,56.7,29.86,WSW,255,0.0,9.0,99,0.00,,,0.00,meteohub,2013-09-08 11:12:00,
2013-09-08 04:17:00,57.0,56.7,29.86,SW,217,5.0,9.0,99,0.00,,,0.00,meteohub,2013-09-08 11:17:00,
2013-09-08 04:22:00,56.8,56.5,29.85,West,274,5.0,8.0,99,0.00,,,0.00,meteohub,2013-09-08 11:22:00,
2013-09-08 04:27:00,56.8,56.5,29.85,West,281,1.0,10.0,99,0.00,,,0.00,meteohub,2013-09-08 11:27:00,
2013-09-08 04:32:00,56.8,56.5,29.85,SW,234,0.0,10.0,99,0.00,,,0.00,meteohub,2013-09-08 11:32:00,
2013-09-08 04:37:00,56.8,56.5,29.85,WSW,250,0.0,9.0,99,0.00,,,0.00,meteohub,2013-09-08 11:37:00,
2013-09-08 04:42:00,56.8,56.5,29.85,West,271,3.0,9.0,99,0.00,,,0.00,meteohub,2013-09-08 11:42:00,
2013-09-08 04:47:00,56.8,56.5,29.85,WSW,239,3.0,8.0,99,0.00,,,0.00,meteohub,2013-09-08 11:47:00,
2013-09-08 04:52:00,56.8,56.5,29.85,SW,221,8.0,9.0,99,0.00,,,0.00,meteohub,2013-09-08 11:52:00,
2013-09-08 04:57:00,56.8,56.5,29.85,West,261,7.0,9.0,99,0.00,,,0.00,meteohub,2013-09-08 11:57:00,
2013-09-08 05:02:00,56.8,56.5,29.85,West,273,0.0,8.0,99,0.00,,,0.00,meteohub,2013-09-08 12:02:00,
2013-09-08 05:07:00,56.8,56.5,29.85,SW,233,8.0,8.0,99,0.00,,,0.00,meteohub,2013-09-08 12:07:00,
2013-09-08 05:12:00,56.8,56.5,29.85,South,176,4.0,8.0,99,0.00,,,0.00,meteohub,2013-09-08 12:12:00,
2013-09-08 05:17:00,56.8,56.5,29.85,WSW,242,2.0,8.0,99,0.00,,,0.00,meteohub,2013-09-08 12:17:00,
2013-09-08 05:22:00,56.7,56.3,29.85,West,260,3.0,8.0,99,0.00,,,0.00,meteohub,2013-09-08 12:22:00,
2013-09-08 05:27:00,56.7,56.3,29.85,WSW,241,8.0,8.0,99,0.00,,,0.00,meteohub,2013-09-08 12:27:00,
2013-09-08 05:32:00,56.7,56.3,29.85,SW,235,5.0,8.0,99,0.00,,,0.00,meteohub,2013-09-08 12:32:00,
2013-09-08 05:37:00,56.7,56.3,29.85,WSW,249,1.0,8.0,99,0.00,,,0.00,meteohub,2013-09-08 12:37:00,
2013-09-08 05:42:00,56.8,56.5,29.85,WSW,255,0.0,9.0,99,0.00,,,0.00,meteohub,2013-09-08 12:42:00,
2013-09-08 05:47:00,56.8,56.5,29.85,South,176,1.0,9.0,99,0.00,,,0.00,meteohub,2013-09-08 12:47:00,
2013-09-08 05:52:00,56.8,56.5,29.85,SW,233,2.0,8.0,99,0.00,,,0.00,meteohub,2013-09-08 12:52:00,
2013-09-08 05:57:00,56.8,56.5,29.85,WSW,241,5.0,8.0,99,0.00,,,0.00,meteohub,2013-09-08 12:57:00,
2013-09-08 06:02:00,56.8,56.5,29.85,South,176,6.0,8.0,99,0.00,,,0.00,meteohub,2013-09-08 13:02:00,
2013-09-08 06:07:00,56.7,56.3,29.85,WSW,256,0.0,8.0,99,0.00,,,0.00,meteohub,2013-09-08 13:07:00,
2013-09-08 06:12:00,56.7,56.3,29.85,WSW,251,5.0,8.0,99,0.00,,,0.00,meteohub,2013-09-08 13:12:00,
2013-09-08 06:17:00,56.7,56.3,29.85,WSW,250,5.0,8.0,99,0.00,,,0.00,meteohub,2013-09-08 13:17:00,
2013-09-08 06:22:00,56.5,56.1,29.85,WSW,241,8.0,8.0,99,0.00,,,0.00,meteohub,2013-09-08 13:22:00,
2013-09-08 06:27:00,56.5,56.1,29.86,West,263,2.0,9.0,99,0.00,,,0.00,meteohub,2013-09-08 13:27:00,
2013-09-08 06:32:00,56.5,56.1,29.86,WSW,258,6.0,9.0,99,0.00,,,0.00,meteohub,2013-09-08 13:32:00,
2013-09-08 06:37:00,56.3,55.9,29.86,WSW,253,4.0,9.0,99,0.00,,,0.00,meteohub,2013-09-08 13:37:00,
2013-09-08 06:42:00,56.5,56.1,29.86,SW,235,2.0,8.0,99,0.00,,,0.00,meteohub,2013-09-08 13:42:00,
2013-09-08 06:47:00,56.5,56.1,29.86,West,269,5.0,8.0,99,0.00,,,0.00,meteohub,2013-09-08 13:47:00,
2013-09-08 06:52:00,56.3,55.9,29.86,WSW,258,2.0,8.0,99,0.00,,,0.00,meteohub,2013-09-08 13:52:00,
2013-09-08 06:57:00,56.1,55.8,29.86,WSW,245,3.0,9.0,99,0.00,,,0.00,meteohub,2013-09-08 13:57:00,
2013-09-08 07:02:00,56.1,55.8,29.86,SSW,210,4.0,9.0,99,0.00,,,0.00,meteohub,2013-09-08 14:02:00,
2013-09-08 07:07:00,56.1,55.8,29.86,SW,218,4.0,10.0,99,0.00,,,0.00,meteohub,2013-09-08 14:07:00,
2013-09-08 07:12:00,56.5,56.1,29.86,South,176,2.0,10.0,99,0.00,,,0.00,meteohub,2013-09-08 14:12:00,
2013-09-08 07:17:00,56.7,56.3,29.86,West,281,1.0,10.0,99,0.00,,,0.00,meteohub,2013-09-08 14:17:00,
2013-09-08 07:22:00,56.8,56.5,29.86,WSW,245,2.0,10.0,99,0.00,,,0.00,meteohub,2013-09-08 14:22:00,
2013-09-08 07:27:00,56.8,56.5,29.86,West,264,1.0,7.0,99,0.00,,,0.00,meteohub,2013-09-08 14:27:00,
2013-09-08 07:32:00,57.0,56.7,29.87,WSW,243,3.0,7.0,99,0.00,,,0.00,meteohub,2013-09-08 14:32:00,
2013-09-08 07:37:00,57.0,56.7,29.87,WSW,243,7.0,8.0,99,0.00,,,0.00,meteohub,2013-09-08 14:37:00,
2013-09-08 07:42:00,57.0,56.7,29.87,SW,227,3.0,8.0,99,0.00,,,0.00,meteohub,2013-09-08 14:42:00,
2013-09-08 07:47:00,57.2,56.8,29.87,South,176,3.0,9.0,99,0.00,,,0.00,meteohub,2013-09-08 14:47:00,
2013-09-08 07:52:00,57.4,57.0,29.87,West,272,3.0,9.0,99,0.00,,,0.00,meteohub,2013-09-08 14:52:00,
2013-09-08 07:57:00,57.4,57.0,29.87,WSW,253,0.0,9.0,99,0.00,,,0.00,meteohub,2013-09-08 14:57:00,
2013-09-08 08:02:00,57.6,57.2,29.87,West,266,5.0,8.0,99,0.00,,,0.00,meteohub,2013-09-08 15:02:00,
2013-09-08 08:07:00,57.6,57.2,29.87,WSW,240,2.0,8.0,99,0.00,,,0.00,meteohub,2013-09-08 15:07:00,
2013-09-08 08:12:00,57.6,57.2,29.87,West,259,1.0,6.0,99,0.00,,,0.00,meteohub,2013-09-08 15:12:00,
2013-09-08 08:17:00,57.7,57.4,29.87,SW,230,0.0,6.0,99,0.00,,,0.00,meteohub,2013-09-08 15:17:00,
2013-09-08 08:22:00,57.7,57.4,29.87,SW,227,3.0,7.0,99,0.00,,,0.00,meteohub,2013-09-08 15:22:00,
2013-09-08 08:27:00,57.6,57.2,29.87,WSW,252,2.0,9.0,99,0.00,,,0.00,meteohub,2013-09-08 15:27:00,
2013-09-08 08:32:00,57.6,57.2,29.87,SW,235,3.0,9.0,99,0.00,,,0.00,meteohub,2013-09-08 15:32:00,
2013-09-08 08:37:00,57.6,57.2,29.87,WSW,242,4.0,9.0,99,0.00,,,0.00,meteohub,2013-09-08 15:37:00,
2013-09-08 08:42:00,57.6,57.2,29.87,SW,231,3.0,7.0,99,0.00,,,0.00,meteohub,2013-09-08 15:42:00,
2013-09-08 08:47:00,57.6,57.2,29.87,WSW,250,2.0,8.0,99,0.00,,,0.00,meteohub,2013-09-08 15:47:00,
2013-09-08 08:52:00,57.6,57.2,29.87,WSW,241,2.0,8.0,99,0.00,,,0.00,meteohub,2013-09-08 15:52:00,
2013-09-08 08:57:00,57.6,57.2,29.87,WSW,254,2.0,7.0,99,0.00,,,0.00,meteohub,2013-09-08 15:57:00,
2013-09-08 09:02:00,57.6,57.2,29.87,WSW,245,4.0,8.0,99,0.00,,,0.00,meteohub,2013-09-08 16:02:00,
2013-09-08 09:07:00,57.6,57.2,29.87,WSW,258,0.0,8.0,99,0.00,,,0.00,meteohub,2013-09-08 16:07:00,
2013-09-08 09:12:00,57.7,57.4,29.87,SW,231,2.0,8.0,99,0.00,,,0.00,meteohub,2013-09-08 16:12:00,
2013-09-08 09:17:00,57.7,57.4,29.87,WSW,245,2.0,7.0,99,0.00,,,0.00,meteohub,2013-09-08 16:17:00,
2013-09-08 09:22:00,57.7,57.4,29.87,WSW,246,1.0,7.0,99,0.00,,,0.00,meteohub,2013-09-08 16:22:00,
2013-09-08 09:27:00,57.9,57.6,29.87,WSW,243,4.0,7.0,99,0.00,,,0.00,meteohub,2013-09-08 16:27:00,
2013-09-08 09:32:00,57.7,57.4,29.87,SW,234,1.0,7.0,99,0.00,,,0.00,meteohub,2013-09-08 16:32:00,
2013-09-08 09:37:00,57.9,57.6,29.87,WNW,297,1.0,7.0,99,0.00,,,0.00,meteohub,2013-09-08 16:37:00,
2013-09-08 09:42:00,57.9,57.6,29.87,WSW,241,5.0,6.0,99,0.00,,,0.00,meteohub,2013-09-08 16:42:00,
2013-09-08 09:47:00,57.7,57.4,29.87,WSW,237,2.0,7.0,99,0.00,,,0.00,meteohub,2013-09-08 16:47:00,
2013-09-08 09:52:00,57.9,57.6,29.87,WSW,241,3.0,8.0,99,0.00,,,0.00,meteohub,2013-09-08 16:52:00,
2013-09-08 09:57:00,58.3,57.9,29.87,WSW,258,5.0,8.0,99,0.00,,,0.00,meteohub,2013-09-08 16:57:00,
2013-09-08 10:02:00,58.3,57.9,29.87,SW,233,4.0,7.0,99,0.00,,,0.00,meteohub,2013-09-08 17:02:00,
2013-09-08 10:07:00,58.5,58.1,29.87,WSW,252,2.0,7.0,99,0.00,,,0.00,meteohub,2013-09-08 17:07:00,
2013-09-08 10:12:00,58.6,58.3,29.87,SW,218,0.0,7.0,99,0.00,,,0.00,meteohub,2013-09-08 17:12:00,
2013-09-08 10:17:00,58.8,58.5,29.87,West,270,3.0,5.0,99,0.00,,,0.00,meteohub,2013-09-08 17:17:00,
2013-09-08 10:22:00,58.8,58.5,29.87,WSW,237,3.0,7.0,99,0.00,,,0.00,meteohub,2013-09-08 17:22:00,
2013-09-08 10:27:00,58.6,58.3,29.87,SW,231,0.0,7.0,99,0.00,,,0.00,meteohub,2013-09-08 17:27:00,
2013-09-08 10:32:00,59.0,58.6,29.87,WSW,241,4.0,7.0,99,0.00,,,0.00,meteohub,2013-09-08 17:32:00,
2013-09-08 10:37:00,59.2,58.8,29.87,WSW,240,7.0,7.0,99,0.00,,,0.00,meteohub,2013-09-08 17:37:00,
2013-09-08 10:42:00,59.5,59.2,29.87,West,264,1.0,7.0,99,0.00,,,0.00,meteohub,2013-09-08 17:42:00,
2013-09-08 10:47:00,60.3,59.9,29.87,WNW,285,1.0,7.0,99,0.00,,,0.00,meteohub,2013-09-08 17:47:00,
2013-09-08 10:52:00,60.3,59.9,29.87,WSW,258,7.0,7.0,99,0.00,,,0.00,meteohub,2013-09-08 17:52:00,
2013-09-08 10:57:00,60.4,60.1,29.87,West,266,2.0,7.0,99,0.00,,,0.00,meteohub,2013-09-08 17:57:00,
2013-09-08 11:02:00,60.6,60.1,29.87,NW,324,3.0,7.0,98,0.00,,,0.00,meteohub,2013-09-08 18:02:00,
2013-09-08 11:07:00,60.6,59.7,29.87,SW,233,4.0,9.0,97,0.00,,,0.00,meteohub,2013-09-08 18:07:00,
2013-09-08 11:12:00,60.4,59.4,29.87,West,262,5.0,9.0,96,0.00,,,0.00,meteohub,2013-09-08 18:12:00,
2013-09-08 11:17:00,60.6,59.5,29.87,WSW,243,4.0,9.0,96,0.00,,,0.00,meteohub,2013-09-08 18:17:00,
2013-09-08 11:22:00,61.0,59.9,29.87,WSW,248,3.0,9.0,96,0.00,,,0.00,meteohub,2013-09-08 18:22:00,
2013-09-08 11:27:00,61.5,60.1,29.86,WSW,241,3.0,9.0,95,0.00,,,0.00,meteohub,2013-09-08 18:27:00,
2013-09-08 11:32:00,61.7,59.7,29.86,SW,233,3.0,8.0,93,0.00,,,0.00,meteohub,2013-09-08 18:32:00,
2013-09-08 11:37:00,61.9,59.9,29.86,SE,140,1.0,11.0,93,0.00,,,0.00,meteohub,2013-09-08 18:37:00,
2013-09-08 11:42:00,62.4,59.7,29.87,WSW,251,4.0,11.0,91,0.00,,,0.00,meteohub,2013-09-08 18:42:00,
2013-09-08 11:47:00,62.2,59.5,29.87,West,260,6.0,8.0,91,0.00,,,0.00,meteohub,2013-09-08 18:47:00,
2013-09-08 11:52:00,62.1,59.4,29.86,West,270,3.0,9.0,91,0.00,,,0.00,meteohub,2013-09-08 18:52:00,
2013-09-08 11:57:00,62.1,59.4,29.86,SSW,197,3.0,10.0,91,0.00,,,0.00,meteohub,2013-09-08 18:57:00,
2013-09-08 12:02:00,62.4,59.4,29.86,WSW,248,8.0,10.0,90,0.00,,,0.00,meteohub,2013-09-08 19:02:00,
2013-09-08 12:07:00,61.9,59.2,29.86,WSW,258,5.0,11.0,91,0.00,,,0.00,meteohub,2013-09-08 19:07:00,
2013-09-08 12:12:00,62.1,59.4,29.86,WNW,288,8.0,11.0,91,0.00,,,0.00,meteohub,2013-09-08 19:12:00,
2013-09-08 12:17:00,62.1,59.2,29.86,WSW,239,3.0,11.0,90,0.00,,,0.00,meteohub,2013-09-08 19:17:00,
2013-09-08 12:22:00,61.5,58.6,29.86,WSW,237,5.0,10.0,90,0.00,,,0.00,meteohub,2013-09-08 19:22:00,
2013-09-08 12:27:00,61.9,59.5,29.86,WNW,289,3.0,11.0,92,0.00,,,0.00,meteohub,2013-09-08 19:27:00,
2013-09-08 12:32:00,62.1,59.4,29.86,NW,316,5.0,11.0,91,0.00,,,0.00,meteohub,2013-09-08 19:32:00,
2013-09-08 12:37:00,61.7,58.8,29.86,West,262,6.0,11.0,90,0.00,,,0.00,meteohub,2013-09-08 19:37:00,
2013-09-08 12:42:00,61.3,58.6,29.86,West,262,8.0,12.0,91,0.00,,,0.00,meteohub,2013-09-08 19:42:00,
2013-09-08 12:47:00,61.5,58.8,29.86,WSW,253,4.0,13.0,91,0.00,,,0.00,meteohub,2013-09-08 19:47:00,
2013-09-08 12:52:00,61.3,58.6,29.86,WSW,239,4.0,13.0,91,0.00,,,0.00,meteohub,2013-09-08 19:52:00,
2013-09-08 12:57:00,61.3,58.6,29.86,West,266,7.0,13.0,91,0.00,,,0.00,meteohub,2013-09-08 19:57:00,
2013-09-08 13:02:00,61.3,58.6,29.86,West,262,3.0,13.0,91,0.00,,,0.00,meteohub,2013-09-08 20:02:00,
2013-09-08 13:07:00,61.3,58.6,29.85,West,271,5.0,13.0,91,0.00,,,0.00,meteohub,2013-09-08 20:07:00,
2013-09-08 13:12:00,61.7,59.0,29.85,SW,231,5.0,13.0,91,0.00,,,0.00,meteohub,2013-09-08 20:12:00,
2013-09-08 13:17:00,62.2,59.5,29.85,West,272,3.0,10.0,91,0.00,,,0.00,meteohub,2013-09-08 20:17:00,
2013-09-08 13:22:00,62.4,59.2,29.85,West,281,7.0,10.0,89,0.00,,,0.00,meteohub,2013-09-08 20:22:00,
2013-09-08 13:27:00,62.1,59.2,29.84,WSW,253,5.0,10.0,90,0.00,,,0.00,meteohub,2013-09-08 20:27:00,
2013-09-08 13:32:00,62.1,59.2,29.84,West,279,5.0,13.0,90,0.00,,,0.00,meteohub,2013-09-08 20:32:00,
2013-09-08 13:37:00,62.2,59.2,29.84,WSW,254,2.0,13.0,90,0.00,,,0.00,meteohub,2013-09-08 20:37:00,
2013-09-08 13:42:00,62.2,59.2,29.84,WSW,237,12.0,13.0,90,0.00,,,0.00,meteohub,2013-09-08 20:42:00,
2013-09-08 13:47:00,62.4,59.4,29.84,SW,233,8.0,12.0,90,0.00,,,0.00,meteohub,2013-09-08 20:47:00,
2013-09-08 13:52:00,62.2,59.2,29.84,NW,314,5.0,12.0,90,0.00,,,0.00,meteohub,2013-09-08 20:52:00,
2013-09-08 13:57:00,62.2,59.2,29.84,NW,304,3.0,12.0,90,0.00,,,0.00,meteohub,2013-09-08 20:57:00,
2013-09-08 14:02:00,62.2,59.2,29.84,SW,215,1.0,11.0,90,0.00,,,0.00,meteohub,2013-09-08 21:02:00,
2013-09-08 14:07:00,62.4,59.4,29.84,West,281,3.0,11.0,90,0.00,,,0.00,meteohub,2013-09-08 21:07:00,
2013-09-08 14:12:00,62.2,59.2,29.83,NW,320,0.0,12.0,90,0.00,,,0.00,meteohub,2013-09-08 21:12:00,
2013-09-08 14:17:00,62.1,59.2,29.84,WSW,241,5.0,13.0,90,0.00,,,0.00,meteohub,2013-09-08 21:17:00,
2013-09-08 14:22:00,61.5,58.6,29.84,WNW,290,3.0,14.0,90,0.00,,,0.00,meteohub,2013-09-08 21:22:00,
2013-09-08 14:27:00,61.3,58.6,29.84,WNW,290,7.0,14.0,91,0.00,,,0.00,meteohub,2013-09-08 21:27:00,
2013-09-08 14:32:00,61.0,58.6,29.83,West,274,10.0,14.0,92,0.00,,,0.00,meteohub,2013-09-08 21:32:00,
2013-09-08 14:37:00,61.0,58.6,29.83,WSW,251,8.0,13.0,92,0.00,,,0.00,meteohub,2013-09-08 21:37:00,
2013-09-08 14:42:00,60.8,58.8,29.83,WSW,238,8.0,13.0,93,0.00,,,0.00,meteohub,2013-09-08 21:42:00,
2013-09-08 14:47:00,60.8,58.5,29.83,West,261,8.0,13.0,92,0.00,,,0.00,meteohub,2013-09-08 21:47:00,
2013-09-08 14:52:00,60.6,58.3,29.83,SW,234,11.0,13.0,92,0.00,,,0.00,meteohub,2013-09-08 21:52:00,
2013-09-08 14:57:00,60.3,58.3,29.82,WNW,292,3.0,14.0,93,0.00,,,0.00,meteohub,2013-09-08 21:57:00,
2013-09-08 15:02:00,60.6,58.6,29.82,WSW,239,4.0,14.0,93,0.00,,,0.00,meteohub,2013-09-08 22:02:00,
2013-09-08 15:07:00,60.6,58.6,29.82,WNW,285,8.0,14.0,93,0.00,,,0.00,meteohub,2013-09-08 22:07:00,
2013-09-08 15:12:00,60.6,58.3,29.82,WSW,245,4.0,14.0,92,0.00,,,0.00,meteohub,2013-09-08 22:12:00,
2013-09-08 15:17:00,60.4,58.5,29.81,SW,235,9.0,14.0,93,0.00,,,0.00,meteohub,2013-09-08 22:17:00,
2013-09-08 15:22:00,60.3,58.3,29.81,WSW,238,11.0,14.0,93,0.00,,,0.00,meteohub,2013-09-08 22:22:00,
2013-09-08 15:27:00,60.6,58.6,29.81,WNW,293,3.0,14.0,93,0.00,,,0.00,meteohub,2013-09-08 22:27:00,
2013-09-08 15:32:00,61.0,58.6,29.81,West,269,7.0,14.0,92,0.00,,,0.00,meteohub,2013-09-08 22:32:00,
2013-09-08 15:37:00,61.3,59.0,29.81,West,260,10.0,13.0,92,0.00,,,0.00,meteohub,2013-09-08 22:37:00,
2013-09-08 15:42:00,61.2,58.5,29.81,WSW,258,8.0,13.0,91,0.00,,,0.00,meteohub,2013-09-08 22:42:00,
2013-09-08 15:47:00,61.5,58.8,29.80,South,191,9.0,14.0,91,0.00,,,0.00,meteohub,2013-09-08 22:47:00,
2013-09-08 15:52:00,61.3,58.5,29.80,WSW,247,5.0,14.0,90,0.00,,,0.00,meteohub,2013-09-08 22:52:00,
2013-09-08 15:57:00,61.0,58.1,29.80,West,270,10.0,12.0,90,0.00,,,0.00,meteohub,2013-09-08 22:57:00,
2013-09-08 16:02:00,60.8,58.1,29.80,WSW,253,4.0,12.0,91,0.00,,,0.00,meteohub,2013-09-08 23:02:00,
2013-09-08 16:07:00,60.8,58.1,29.80,West,263,8.0,14.0,91,0.00,,,0.00,meteohub,2013-09-08 23:07:00,
2013-09-08 16:12:00,61.2,58.3,29.80,WSW,247,7.0,14.0,90,0.00,,,0.00,meteohub,2013-09-08 23:12:00,
2013-09-08 16:17:00,61.0,57.7,29.80,SW,236,7.0,14.0,89,0.00,,,0.00,meteohub,2013-09-08 23:17:00,
2013-09-08 16:22:00,60.4,57.6,29.80,West,260,8.0,14.0,90,0.00,,,0.00,meteohub,2013-09-08 23:22:00,
2013-09-08 16:27:00,60.1,57.4,29.80,WSW,257,7.0,14.0,91,0.00,,,0.00,meteohub,2013-09-08 23:27:00,
2013-09-08 16:32:00,59.7,57.4,29.80,WNW,297,5.0,13.0,92,0.00,,,0.00,meteohub,2013-09-08 23:32:00,
2013-09-08 16:37:00,59.5,57.2,29.80,WSW,238,11.0,13.0,92,0.00,,,0.00,meteohub,2013-09-08 23:37:00,
2013-09-08 16:42:00,59.2,57.2,29.80,SW,218,7.0,15.0,93,0.00,,,0.00,meteohub,2013-09-08 23:42:00,
2013-09-08 16:47:00,58.8,57.0,29.79,WSW,258,6.0,15.0,94,0.00,,,0.00,meteohub,2013-09-08 23:47:00,
2013-09-08 16:52:00,59.2,57.4,29.79,WSW,252,3.0,15.0,94,0.00,,,0.00,meteohub,2013-09-08 23:52:00,
2013-09-08 16:57:00,59.4,57.6,29.79,West,260,9.0,14.0,94,0.00,,,0.00,meteohub,2013-09-08 23:57:00,
2013-09-08 17:02:00,59.2,57.2,29.79,West,268,8.0,13.0,93,0.00,,,0.00,meteohub,2013-09-09 00:02:00,
2013-09-08 17:07:00,58.6,56.8,29.79,WSW,257,6.0,13.0,94,0.00,,,0.00,meteohub,2013-09-09 00:07:00,
2013-09-08 17:12:00,58.5,56.7,29.79,WSW,243,8.0,13.0,94,0.00,,,0.00,meteohub,2013-09-09 00:12:00,
2013-09-08 17:17:00,58.3,56.8,29.79,West,265,7.0,13.0,95,0.00,,,0.00,meteohub,2013-09-09 00:17:00,
2013-09-08 17:22:00,58.5,57.0,29.80,SW,235,10.0,13.0,95,0.00,,,0.00,meteohub,2013-09-09 00:22:00,
2013-09-08 17:27:00,58.1,56.7,29.79,West,264,10.0,13.0,95,0.00,,,0.00,meteohub,2013-09-09 00:27:00,
2013-09-08 17:32:00,57.7,56.3,29.80,WSW,252,10.0,13.0,95,0.00,,,0.00,meteohub,2013-09-09 00:32:00,
2013-09-08 17:37:00,57.7,56.7,29.79,WNW,300,3.0,13.0,96,0.00,,,0.00,meteohub,2013-09-09 00:37:00,
2013-09-08 17:42:00,57.6,56.1,29.79,West,281,7.0,13.0,95,0.00,,,0.00,meteohub,2013-09-09 00:42:00,
2013-09-08 17:47:00,57.4,56.3,29.79,WSW,246,4.0,16.0,96,0.00,,,0.00,meteohub,2013-09-09 00:47:00,
2013-09-08 17:52:00,57.0,55.9,29.79,WSW,242,8.0,16.0,96,0.00,,,0.00,meteohub,2013-09-09 00:52:00,
2013-09-08 17:57:00,57.0,55.9,29.79,WSW,237,12.0,16.0,96,0.00,,,0.00,meteohub,2013-09-09 00:57:00,
2013-09-08 18:02:00,56.8,55.8,29.79,WSW,252,9.0,14.0,96,0.00,,,0.00,meteohub,2013-09-09 01:02:00,
2013-09-08 18:07:00,56.7,55.6,29.79,WSW,247,11.0,13.0,96,0.00,,,0.00,meteohub,2013-09-09 01:07:00,
2013-09-08 18:12:00,56.5,55.4,29.78,SW,233,11.0,13.0,96,0.00,,,0.00,meteohub,2013-09-09 01:12:00,
2013-09-08 18:17:00,56.3,55.2,29.78,West,265,5.0,13.0,96,0.00,,,0.00,meteohub,2013-09-09 01:17:00,
2013-09-08 18:22:00,56.3,55.2,29.78,West,270,3.0,13.0,96,0.00,,,0.00,meteohub,2013-09-09 01:22:00,
2013-09-08 18:27:00,56.1,55.0,29.78,WSW,249,4.0,14.0,96,0.00,,,0.00,meteohub,2013-09-09 01:27:00,
2013-09-08 18:32:00,55.9,55.0,29.78,WSW,252,7.0,14.0,97,0.00,,,0.00,meteohub,2013-09-09 01:32:00,
2013-09-08 18:37:00,56.1,55.2,29.78,SW,214,8.0,13.0,97,0.00,,,0.00,meteohub,2013-09-09 01:37:00,
2013-09-08 18:42:00,55.9,55.0,29.78,WSW,238,11.0,13.0,97,0.00,,,0.00,meteohub,2013-09-09 01:42:00,
2013-09-08 18:47:00,56.1,55.2,29.78,WSW,248,7.0,13.0,97,0.00,,,0.00,meteohub,2013-09-09 01:47:00,
2013-09-08 18:52:00,56.1,55.2,29.78,SW,228,3.0,13.0,97,0.00,,,0.00,meteohub,2013-09-09 01:52:00,
2013-09-08 18:57:00,56.1,55.2,29.78,SW,221,7.0,13.0,97,0.00,,,0.00,meteohub,2013-09-09 01:57:00,
2013-09-08 19:02:00,56.1,55.2,29.78,West,279,7.0,13.0,97,0.00,,,0.00,meteohub,2013-09-09 02:02:00,
2013-09-08 19:07:00,56.1,55.2,29.78,West,261,6.0,14.0,97,0.00,,,0.00,meteohub,2013-09-09 02:07:00,
2013-09-08 19:12:00,56.1,55.2,29.78,SW,230,7.0,14.0,97,0.00,,,0.00,meteohub,2013-09-09 02:12:00,
2013-09-08 19:17:00,55.9,55.0,29.78,South,176,5.0,14.0,97,0.00,,,0.00,meteohub,2013-09-09 02:17:00,
2013-09-08 19:22:00,55.8,54.9,29.78,West,260,7.0,14.0,97,0.00,,,0.00,meteohub,2013-09-09 02:22:00,
2013-09-08 19:27:00,55.6,54.7,29.78,WSW,243,5.0,13.0,97,0.00,,,0.00,meteohub,2013-09-09 02:27:00,
2013-09-08 19:32:00,55.8,55.2,29.78,West,260,8.0,14.0,98,0.00,,,0.00,meteohub,2013-09-09 02:32:00,
2013-09-08 19:37:00,55.6,55.0,29.78,WSW,237,8.0,14.0,98,0.00,,,0.00,meteohub,2013-09-09 02:37:00,
2013-09-08 19:42:00,55.6,55.0,29.78,WSW,248,9.0,14.0,98,0.00,,,0.00,meteohub,2013-09-09 02:42:00,
2013-09-08 19:47:00,55.6,55.0,29.78,WSW,249,12.0,14.0,98,0.00,,,0.00,meteohub,2013-09-09 02:47:00,
2013-09-08 19:52:00,55.8,55.2,29.78,South,176,2.0,14.0,98,0.00,,,0.00,meteohub,2013-09-09 02:52:00,
2013-09-08 19:57:00,55.8,55.2,29.78,West,269,3.0,13.0,98,0.00,,,0.00,meteohub,2013-09-09 02:57:00,
2013-09-08 20:02:00,55.8,55.2,29.78,WSW,252,9.0,12.0,98,0.00,,,0.00,meteohub,2013-09-09 03:02:00,
2013-09-08 20:07:00,55.8,55.2,29.78,West,266,5.0,11.0,98,0.00,,,0.00,meteohub,2013-09-09 03:07:00,
2013-09-08 20:12:00,55.6,55.0,29.78,WSW,254,7.0,13.0,98,0.00,,,0.00,meteohub,2013-09-09 03:12:00,
2013-09-08 20:17:00,55.4,54.9,29.78,WNW,289,7.0,13.0,98,0.00,,,0.00,meteohub,2013-09-09 03:17:00,
2013-09-08 20:22:00,55.4,54.9,29.78,SW,235,8.0,13.0,98,0.00,,,0.00,meteohub,2013-09-09 03:22:00,
2013-09-08 20:27:00,55.4,54.9,29.78,West,271,6.0,13.0,98,0.00,,,0.00,meteohub,2013-09-09 03:27:00,
2013-09-08 20:32:00,55.6,55.0,29.78,West,279,3.0,13.0,98,0.00,,,0.00,meteohub,2013-09-09 03:32:00,
2013-09-08 20:37:00,55.6,55.0,29.78,SW,229,7.0,11.0,98,0.00,,,0.00,meteohub,2013-09-09 03:37:00,
2013-09-08 20:42:00,55.4,54.9,29.78,WNW,297,5.0,11.0,98,0.00,,,0.00,meteohub,2013-09-09 03:42:00,
2013-09-08 20:47:00,55.4,54.9,29.78,West,274,5.0,11.0,98,0.00,,,0.00,meteohub,2013-09-09 03:47:00,
2013-09-08 20:52:00,55.6,55.0,29.78,South,176,5.0,12.0,98,0.00,,,0.00,meteohub,2013-09-09 03:52:00,
2013-09-08 20:57:00,55.4,54.9,29.79,South,176,6.0,12.0,98,0.00,,,0.00,meteohub,2013-09-09 03:57:00,
2013-09-08 21:01:00,55.2,54.7,29.79,WSW,238,9.0,12.0,98,0.00,,,0.00,meteohub,2013-09-09 04:01:00,
2013-09-08 21:02:00,55.2,54.7,29.79,WSW,243,8.0,12.0,98,0.00,,,0.00,meteohub,2013-09-09 04:02:00,
2013-09-08 21:04:00,55.2,54.7,29.79,West,267,7.0,12.0,98,0.00,,,0.00,meteohub,2013-09-09 04:04:00,
2013-09-08 21:05:00,55.2,54.7,29.79,SW,233,9.0,12.0,98,0.00,,,0.00,meteohub,2013-09-09 04:05:00,
2013-09-08 21:09:00,55.4,54.9,29.79,WSW,237,8.0,11.0,98,0.00,,,0.00,meteohub,2013-09-09 04:09:00,
2013-09-08 21:14:00,55.4,55.0,29.79,WSW,250,2.0,12.0,99,0.00,,,0.00,meteohub,2013-09-09 04:14:00,
2013-09-08 21:19:00,55.4,55.0,29.79,WSW,240,7.0,12.0,99,0.00,,,0.00,meteohub,2013-09-09 04:19:00,
2013-09-08 21:24:00,55.6,55.2,29.79,West,266,8.0,10.0,99,0.00,,,0.00,meteohub,2013-09-09 04:24:00,
2013-09-08 21:29:00,55.6,55.2,29.79,WSW,243,5.0,11.0,99,0.00,,,0.00,meteohub,2013-09-09 04:29:00,
2013-09-08 21:34:00,55.2,54.7,29.79,WSW,237,7.0,11.0,98,0.00,,,0.00,meteohub,2013-09-09 04:34:00,
2013-09-08 21:39:00,55.2,54.7,29.79,WNW,286,2.0,11.0,98,0.00,,,0.00,meteohub,2013-09-09 04:39:00,
2013-09-08 21:44:00,55.4,54.9,29.79,West,264,8.0,11.0,98,0.00,,,0.00,meteohub,2013-09-09 04:44:00,
2013-09-08 21:49:00,55.6,55.2,29.79,WSW,256,6.0,10.0,99,0.00,,,0.00,meteohub,2013-09-09 04:49:00,
2013-09-08 21:54:00,55.4,54.9,29.79,WSW,237,8.0,9.0,98,0.00,,,0.00,meteohub,2013-09-09 04:54:00,
2013-09-08 21:59:00,55.2,54.7,29.79,SW,219,5.0,11.0,98,0.00,,,0.00,meteohub,2013-09-09 04:59:00,
2013-09-08 22:04:00,55.4,55.0,29.80,SW,228,6.0,11.0,99,0.00,,,0.00,meteohub,2013-09-09 05:04:00,
2013-09-08 22:09:00,55.6,55.2,29.80,WSW,238,8.0,11.0,99,0.00,,,0.00,meteohub,2013-09-09 05:09:00,
2013-09-08 22:14:00,55.6,55.2,29.80,South,176,4.0,10.0,99,0.00,,,0.00,meteohub,2013-09-09 05:14:00,
2013-09-08 22:19:00,55.4,55.0,29.79,WSW,247,5.0,10.0,99,0.00,,,0.00,meteohub,2013-09-09 05:19:00,
2013-09-08 22:24:00,55.2,54.7,29.79,WSW,248,4.0,9.0,98,0.00,,,0.00,meteohub,2013-09-09 05:24:00,
2013-09-08 22:30:00,55.2,54.9,29.79,West,267,1.0,9.0,99,0.00,,,0.00,meteohub,2013-09-09 05:30:00,
2013-09-08 22:35:00,55.0,54.7,29.79,South,176,4.0,9.0,99,0.00,,,0.00,meteohub,2013-09-09 05:35:00,
2013-09-08 22:40:00,55.0,54.7,29.79,South,176,3.0,9.0,99,0.00,,,0.00,meteohub,2013-09-09 05:40:00,
2013-09-08 22:45:00,55.0,54.7,29.80,WNW,288,2.0,9.0,99,0.00,,,0.00,meteohub,2013-09-09 05:45:00,
2013-09-08 22:50:00,55.0,54.7,29.80,SW,234,5.0,9.0,99,0.00,,,0.00,meteohub,2013-09-09 05:50:00,
2013-09-08 22:55:00,55.0,54.7,29.80,WSW,241,5.0,9.0,99,0.00,,,0.00,meteohub,2013-09-09 05:55:00,
2013-09-08 23:00:00,55.0,54.7,29.80,WSW,237,8.0,9.0,99,0.00,,,0.00,meteohub,2013-09-09 06:00:00,
2013-09-08 23:05:00,54.9,54.5,29.80,West,277,6.0,9.0,99,0.00,,,0.00,meteohub,2013-09-09 06:05:00,
2013-09-08 23:10:00,54.9,54.5,29.80,South,176,9.0,10.0,99,0.00,,,0.00,meteohub,2013-09-09 06:10:00,
2013-09-08 23:15:00,55.0,54.7,29.80,West,274,5.0,10.0,99,0.00,,,0.00,meteohub,2013-09-09 06:15:00,
2013-09-08 23:20:00,54.9,54.5,29.80,South,176,3.0,10.0,99,0.00,,,0.00,meteohub,2013-09-09 06:20:00,
2013-09-08 23:25:00,54.9,54.5,29.80,WSW,238,7.0,10.0,99,0.00,,,0.00,meteohub,2013-09-09 06:25:00,
2013-09-08 23:30:00,54.9,54.5,29.80,WSW,251,5.0,11.0,99,0.00,,,0.00,meteohub,2013-09-09 06:30:00,
2013-09-08 23:35:00,54.9,54.5,29.80,SW,236,7.0,11.0,99,0.00,,,0.00,meteohub,2013-09-09 06:35:00,
2013-09-08 23:40:00,55.0,54.7,29.80,WSW,251,8.0,11.0,99,0.00,,,0.00,meteohub,2013-09-09 06:40:00,
2013-09-08 23:45:00,55.0,54.7,29.80,SW,218,5.0,12.0,99,0.00,,,0.00,meteohub,2013-09-09 06:45:00,
2013-09-08 23:50:00,54.9,54.5,29.80,WSW,249,9.0,12.0,99,0.00,,,0.00,meteohub,2013-09-09 06:50:00,
2013-09-08 23:55:00,54.9,54.5,29.80,SW,215,6.0,12.0,99,0.00,,,0.00,meteohub,2013-09-09 06:55:00,